FLTSATCOM 7 (USA 20)

Last updated on Sat Mar 30 2019 03:13:49 GMT+0000 (Coordinated Universal Time)

1 17181U 86096A 19088.79715278 .00000015 00000-0 00000+0 0 9994 2 17181 14.5946 359.8657 0034697 283.3056 254.9993 0.98666019125833
UTC large
Height (km)
Speed (km/s)
/
Latitude / Longitude
Inclination (degrees)
Orbital Period (minutes)
Azimuth
Elevation
Range (km)
Doppler Factor

Next 0 passes for location: London (51.5072 / 0.1276)

Sorry there are no passes over London.